Weather History for Alexandria, MN

Change the Weather History Date:

Sunday, September 14, 2014

  Actual Average Record
Temperature  
Mean Temperature 50 °F -  
Max Temperature 57 °F 67 °F 88 °F (1948)
Min Temperature 44 °F 47 °F 32 °F (1956)
Degree Days  
Heating Degree Days 14    
Moisture  
Dew Point 42 °F    
Average Humidity 74    
Maximum Humidity 90    
Minimum Humidity 57    
Precipitation  
Precipitation 0.00 in - - ()
Sea Level Pressure  
Sea Level Pressure 30.14 in    
Wind  
Wind Speed 10 mph (West)    
Max Wind Speed 17 mph    
Max Gust Speed 17 mph    
Visibility 10 miles    
Events      
Averages and records for this station are not official NWS values.
T = Trace of Precipitation, MM = Missing Value Source: NWS Daily Summary

Daily Weather History Graph

Daily Weather History Graph

Search for Another Location

Airport:

Trip Planner

Search our weather history database for the weather conditions in past years. The results will help you decide how hot, cold, wet, or windy it might be!

Date:

Astronomy

Sep. 14, 2014 Rise Set
Actual Time 6:58 AM CDT 7:34 PM CDT
Civil Twilight 6:28 AM CDT 8:04 PM CDT
Nautical Twilight 5:52 AM CDT 8:40 PM CDT
Astronomical Twilight 5:15 AM CDT 9:17 PM CDT
Moon 11:09 PM CDT (9/14) 1:23 PM CDT (9/14)
Length of Visible Light 13h 36m
Length of Day
12h 36m
Waning Gibbous, 64% of the Moon is Illuminated
Sep 14
Waning Gibbous
Sep 15
Last Quarter
Sep 24
New
Oct 1
First Quarter
Oct 8
Full

Hourly Weather History & Observations

Time (CDT) Temp. Windchill Dew Point Humidity Pressure Visibility Wind Dir Wind Speed Gust Speed Precip Events Conditions
12:53 AM 50.0 °F - 42.1 °F 74% 30.09 in 10.0 mi SW 17.3 mph - N/A   Partly Cloudy
1:53 AM 46.9 °F - 43.0 °F 86% 30.09 in 10.0 mi SW 8.1 mph - N/A   Clear
2:53 AM 44.1 °F 40.1 °F 41.0 °F 89% 30.09 in 10.0 mi WSW 6.9 mph - N/A   Clear
3:53 AM 45.0 °F 41.2 °F 42.1 °F 90% 30.09 in 10.0 mi WSW 6.9 mph - N/A   Partly Cloudy
4:53 AM 46.9 °F - 41.0 °F 80% 30.10 in 10.0 mi West 11.5 mph - N/A   Scattered Clouds
5:53 AM 45.0 °F 40.1 °F 39.9 °F 82% 30.11 in 10.0 mi West 9.2 mph - N/A   Clear
6:53 AM 45.0 °F 38.9 °F 39.9 °F 82% 30.12 in 10.0 mi WNW 12.7 mph - N/A   Clear
7:53 AM 46.0 °F 40.6 °F 39.9 °F 79% 30.14 in 10.0 mi West 11.5 mph - N/A   Clear
8:53 AM 46.9 °F - 39.9 °F 77% 30.14 in 10.0 mi West 11.5 mph - N/A   Clear
9:53 AM 48.9 °F - 42.1 °F 77% 30.15 in 10.0 mi WNW 10.4 mph - N/A   Clear
10:53 AM 52.0 °F - 42.1 °F 69% 30.15 in 10.0 mi NW 12.7 mph - N/A   Clear
11:53 AM 53.1 °F - 42.1 °F 66% 30.16 in 10.0 mi WNW 10.4 mph - N/A   Partly Cloudy
12:29 PM 55.9 °F - 43.0 °F 62% 30.14 in 10.0 mi WNW 11.5 mph - N/A   Mostly Cloudy
12:53 PM 55.0 °F - 42.1 °F 62% 30.16 in 10.0 mi WNW 11.5 mph 17.3 mph N/A   Scattered Clouds
1:53 PM 55.0 °F - 42.1 °F 62% 30.17 in 10.0 mi West 10.4 mph - N/A   Overcast
2:53 PM 55.0 °F - 42.1 °F 62% 30.16 in 10.0 mi WNW 9.2 mph - N/A   Mostly Cloudy
3:53 PM 57.0 °F - 42.1 °F 57% 30.15 in 10.0 mi NW 12.7 mph - N/A   Mostly Cloudy
4:53 PM 55.0 °F - 42.1 °F 62% 30.16 in 10.0 mi NW 6.9 mph - N/A   Mostly Cloudy
5:53 PM 55.9 °F - 42.1 °F 60% 30.16 in 10.0 mi West 6.9 mph - N/A   Clear
6:53 PM 54.0 °F - 43.0 °F 66% 30.16 in 10.0 mi West 3.5 mph - N/A   Clear
7:53 PM 52.0 °F - 43.0 °F 71% 30.16 in 10.0 mi Calm Calm - N/A   Clear
8:53 PM 48.9 °F - 43.0 °F 80% 30.17 in 10.0 mi Calm Calm - N/A   Clear
9:53 PM 48.9 °F - 44.1 °F 83% 30.18 in 10.0 mi SW 4.6 mph - N/A   Partly Cloudy
10:53 PM 48.9 °F - 45.0 °F 86% 30.19 in 10.0 mi West 4.6 mph - N/A   Overcast
11:53 PM 48.0 °F - 44.1 °F 86% 30.19 in 10.0 mi NW 4.6 mph - N/A   Scattered Clouds